Location: Bonny Doon Airfield
(37.0704°N, 122.1252°W)
Time: 05:21:43
(UTC-08:00)

Vanguard 1 - Visible Passes

Search period start: 14 December 2017 00:00
Search period end: 24 December 2017 00:00
Orbit: 650 x 3833 km, 34.2° (Epoch: 13 December)

Date Brightness Start Highest point End Pass type
(mag) Time Alt. Az. Time Alt. Az. Time Alt. Az.
14 Dec 14.5 05:09:05 10° S 05:23:24 20° SE 05:36:46 10° E visible
15 Dec 14.4 05:27:08 10° S 05:44:23 27° SE 06:00:10 10° E visible
16 Dec 14.2 05:46:11 10° SSW 06:05:25 35° SE 06:22:40 10° E visible
17 Dec 14.5 03:53:08 10° SSE 04:02:42 14° SE 04:12:26 10° ESE visible
17 Dec 14.0 06:05:51 10° SSW 06:26:32 43° SE 06:44:39 10° E visible
18 Dec 14.3 04:09:25 10° S 04:23:27 21° SE 04:37:52 10° E visible
18 Dec 13.8 06:25:59 10° SW 06:47:42 51° SSE 07:06:19 10° E visible
19 Dec 14.2 04:27:38 10° S 04:44:14 28° SE 05:01:19 10° E visible
19 Dec 13.6 06:46:30 10° SW 07:09:01 59° SSE 07:27:48 10° E visible
20 Dec 14.0 04:46:45 10° SSW 05:05:04 36° SE 05:23:54 10° E visible
21 Dec 14.2 02:54:25 10° SSE 03:03:01 14° SE 03:12:17 10° ESE visible
21 Dec 13.8 05:06:27 10° SSW 05:26:00 44° SE 05:45:59 10° E visible
22 Dec 14.0 03:10:46 10° S 03:23:32 21° SE 03:37:56 10° E visible
22 Dec 13.6 05:26:35 10° SW 05:47:04 52° SSE 06:07:45 10° ENE visible
23 Dec 13.9 03:29:02 10° S 03:44:05 28° SE 04:01:32 10° E visible
23 Dec 13.4 05:47:04 10° SW 06:08:17 60° SSE 06:29:21 10° E visible
